TimePDT,TemperatureF,Dew PointF,Humidity,Sea Level PressureIn,VisibilityMPH,Wind Direction,Wind SpeedMPH,Gust SpeedMPH,PrecipitationIn,Events,Conditions,WindDirDegrees,DateUTC
1:00 AM,50.0,46.4,87,29.80,3.0,West,8.1,-,N/A,,Overcast,280,2012-10-12 08:00:00
2:00 AM,50,47,85,29.79,,WSW,5.8,,,,,250,2012-10-12 09:00:00
2:00 AM,50.0,46.4,87,29.79,3.0,West,6.9,-,N/A,,Overcast,260,2012-10-12 09:00:00
2:57 AM,50.0,46.4,87,29.79,3.0,WSW,4.6,-,N/A,,Overcast,240,2012-10-12 09:57:00
3:00 AM,50.0,46.4,87,29.79,3.0,WSW,4.6,-,N/A,,Overcast,240,2012-10-12 10:00:00
3:24 AM,50.0,46.4,87,29.79,3.0,WNW,8.1,-,N/A,,Overcast,290,2012-10-12 10:24:00
4:00 AM,50.0,46.4,87,29.81,3.0,West,8.1,-,N/A,,Overcast,280,2012-10-12 11:00:00
4:30 AM,50.0,46.4,87,29.81,3.0,West,8.1,19.6,N/A,,Overcast,280,2012-10-12 11:30:00
5:00 AM,50,47,84,29.82,,West,8.1,,,,,270,2012-10-12 12:00:00
5:00 AM,50.0,46.4,87,29.82,3.0,WNW,8.1,-,N/A,,Overcast,290,2012-10-12 12:00:00
5:05 AM,50.0,46.4,87,29.82,3.0,WNW,8.1,-,N/A,,Overcast,300,2012-10-12 12:05:00
5:26 AM,50.0,46.4,87,29.82,3.0,WNW,8.1,19.6,N/A,,Mostly Cloudy,300,2012-10-12 12:26:00
5:43 AM,50.0,46.4,87,29.82,3.0,WNW,9.2,21.9,N/A,,Haze,290,2012-10-12 12:43:00
6:00 AM,50.0,46.4,87,29.82,3.0,WNW,9.2,-,N/A,,Haze,290,2012-10-12 13:00:00
6:45 AM,50.0,46.4,87,29.83,3.0,West,4.6,-,N/A,,Haze,260,2012-10-12 13:45:00
6:47 AM,50.0,46.4,87,29.83,3.0,WSW,5.8,-,N/A,Rain,Light Rain,240,2012-10-12 13:47:00
6:51 AM,50.0,46.4,87,29.83,3.0,West,4.6,-,N/A,Rain,Light Rain,280,2012-10-12 13:51:00
6:56 AM,50.0,46.4,87,29.83,3.0,WNW,6.9,-,N/A,,Haze,290,2012-10-12 13:56:00
7:02 AM,50.0,46.4,87,29.84,3.0,West,8.1,-,N/A,,Haze,280,2012-10-12 14:02:00
7:07 AM,50.0,46.4,87,29.84,3.0,WNW,6.9,-,N/A,Rain,Light Rain,290,2012-10-12 14:07:00
7:31 AM,50.0,46.4,87,29.84,3.0,West,9.2,-,N/A,Rain,Light Rain,260,2012-10-12 14:31:00
8:00 AM,50,47,85,29.83,,West,6.9,,,,,270,2012-10-12 15:00:00
8:00 AM,50.0,46.4,87,29.84,3.0,West,9.2,-,N/A,Rain,Light Rain,280,2012-10-12 15:00:00
8:06 AM,50.0,48.2,94,29.83,3.0,WNW,8.1,17.3,N/A,,Overcast,290,2012-10-12 15:06:00
8:14 AM,50.0,48.2,94,29.84,3.0,West,12.7,-,N/A,,Overcast,270,2012-10-12 15:14:00
8:23 AM,50.0,48.2,94,29.84,3.0,WSW,6.9,-,N/A,,Overcast,240,2012-10-12 15:23:00
8:59 AM,50.0,48.2,94,29.84,3.0,WSW,5.8,-,N/A,,Overcast,240,2012-10-12 15:59:00
9:00 AM,50.0,48.2,94,29.84,3.0,Variable,4.6,-,N/A,,Overcast,0,2012-10-12 16:00:00
9:31 AM,51.8,48.2,88,29.85,4.0,WSW,6.9,-,N/A,,Haze,250,2012-10-12 16:31:00
9:47 AM,51.8,48.2,88,29.85,5.0,WNW,9.2,-,N/A,,Haze,300,2012-10-12 16:47:00
9:48 AM,51.8,48.2,88,29.86,5.0,West,9.2,-,N/A,,Haze,280,2012-10-12 16:48:00
9:50 AM,51.8,46.4,82,29.86,5.0,West,6.9,-,N/A,,Haze,270,2012-10-12 16:50:00
9:52 AM,51.8,48.2,88,29.86,5.0,WSW,5.8,-,N/A,,Haze,250,2012-10-12 16:52:00
9:54 AM,51.8,48.2,88,29.86,5.0,West,9.2,-,N/A,,Haze,270,2012-10-12 16:54:00
9:55 AM,51.8,48.2,88,29.86,5.0,West,8.1,-,N/A,,Haze,270,2012-10-12 16:55:00
9:57 AM,51.8,46.4,82,29.86,5.0,West,10.4,-,N/A,,Haze,270,2012-10-12 16:57:00
10:00 AM,51.8,48.2,88,29.85,5.0,WNW,6.9,-,N/A,,Haze,290,2012-10-12 17:00:00
10:02 AM,51.8,46.4,82,29.85,5.0,West,5.8,-,N/A,Rain,Light Rain,280,2012-10-12 17:02:00
11:00 AM,51,48,87,29.87,,West,5.8,,,,,280,2012-10-12 18:00:00
11:00 AM,51.8,48.2,88,29.87,3.0,Variable,8.1,-,N/A,Rain,Light Rain,0,2012-10-12 18:00:00
11:28 AM,51.8,48.2,88,29.88,3.0,WNW,5.8,-,N/A,,Overcast,290,2012-10-12 18:28:00
11:32 AM,51.8,48.2,88,29.88,3.0,West,5.8,-,N/A,,Overcast,280,2012-10-12 18:32:00
11:34 AM,51.8,48.2,88,29.88,4.0,West,6.9,-,N/A,Rain,Light Rain,280,2012-10-12 18:34:00
11:35 AM,51.8,48.2,88,29.88,4.0,West,8.1,-,N/A,Rain,Light Rain,270,2012-10-12 18:35:00
11:42 AM,51.8,48.2,88,29.89,5.0,West,6.9,-,N/A,Rain,Light Rain,280,2012-10-12 18:42:00
11:48 AM,51.8,48.2,88,29.89,4.0,WNW,8.1,-,N/A,Rain,Light Rain,290,2012-10-12 18:48:00
11:49 AM,51.8,48.2,88,29.89,4.0,West,8.1,-,N/A,Rain,Light Rain,280,2012-10-12 18:49:00
11:50 AM,51.8,48.2,88,29.89,4.0,West,8.1,-,N/A,Rain,Light Rain,270,2012-10-12 18:50:00
11:55 AM,51.8,48.2,88,29.89,4.0,West,9.2,-,N/A,Rain,Light Rain,280,2012-10-12 18:55:00
12:00 PM,51.8,48.2,88,29.89,3.0,WSW,5.8,-,N/A,Rain,Light Rain,250,2012-10-12 19:00:00
12:24 PM,51.8,48.2,88,29.89,6.0,West,5.8,-,N/A,Rain,Light Rain,280,2012-10-12 19:24:00
12:31 PM,51.8,50.0,94,29.89,5.0,WSW,6.9,-,N/A,Rain,Light Rain,250,2012-10-12 19:31:00
12:38 PM,51.8,50.0,94,29.89,2.5,West,5.8,-,N/A,Rain,Light Rain,260,2012-10-12 19:38:00
12:45 PM,51.8,50.0,94,29.89,3.0,West,8.1,-,N/A,Rain,Light Rain,270,2012-10-12 19:45:00
1:00 PM,51.8,50.0,94,29.89,5.0,West,6.9,-,N/A,Rain,Light Rain,260,2012-10-12 20:00:00
1:01 PM,51.8,50.0,94,29.89,6.0,West,5.8,-,N/A,Rain,Light Rain,260,2012-10-12 20:01:00
1:10 PM,51.8,50.0,94,29.89,5.0,WSW,8.1,-,N/A,Rain,Light Rain,250,2012-10-12 20:10:00
1:29 PM,51.8,50.0,94,29.89,6.0,West,6.9,-,N/A,Rain,Light Rain,270,2012-10-12 20:29:00
1:43 PM,51.8,50.0,94,29.89,9.0,West,5.8,-,N/A,,Overcast,280,2012-10-12 20:43:00
2:00 PM,52,49,86,29.89,,West,8.1,,,,,260,2012-10-12 21:00:00
2:00 PM,51.8,50.0,94,29.89,9.0,West,10.4,-,N/A,,Overcast,270,2012-10-12 21:00:00
2:02 PM,51.8,50.0,94,29.89,8.0,West,10.4,-,N/A,,Overcast,270,2012-10-12 21:02:00
2:15 PM,51.8,50.0,94,29.89,8.0,West,8.1,-,N/A,Rain,Light Rain,280,2012-10-12 21:15:00
2:16 PM,51.8,50.0,94,29.89,8.0,West,9.2,-,N/A,Rain,Light Rain,270,2012-10-12 21:16:00
2:46 PM,51.8,50.0,94,29.89,9.0,West,6.9,-,N/A,Rain,Light Rain,270,2012-10-12 21:46:00
3:03 PM,51.8,50.0,94,29.89,9.0,WSW,5.8,-,N/A,,Overcast,250,2012-10-12 22:03:00
3:12 PM,51.8,50.0,94,29.89,9.0,West,6.9,-,N/A,Rain,Light Rain,260,2012-10-12 22:12:00
3:24 PM,51.8,50.0,94,29.89,7.0,WSW,4.6,-,N/A,Rain,Light Rain,250,2012-10-12 22:24:00
3:26 PM,51.8,50.0,94,29.89,5.0,WSW,4.6,-,N/A,Rain,Light Rain,250,2012-10-12 22:26:00
3:52 PM,51.8,50.0,94,29.89,6.0,SW,3.5,-,N/A,Rain,Light Rain,230,2012-10-12 22:52:00
4:00 PM,51.8,50.0,94,29.89,9.0,WSW,4.6,-,N/A,Rain,Light Rain,250,2012-10-12 23:00:00
4:01 PM,51.8,50.0,94,29.89,9.0,WSW,4.6,-,N/A,Rain,Light Rain,240,2012-10-12 23:01:00
4:08 PM,51.8,50.0,94,29.89,9.0,WSW,5.8,-,N/A,,Overcast,250,2012-10-12 23:08:00
4:18 PM,51.8,50.0,94,29.89,8.0,WSW,4.6,-,N/A,Rain,Light Rain,240,2012-10-12 23:18:00
4:28 PM,51.8,50.0,94,29.89,5.0,WSW,3.5,-,N/A,Rain,Light Rain,240,2012-10-12 23:28:00
4:49 PM,51.8,50.0,94,29.89,6.0,West,4.6,-,N/A,Rain,Light Rain,260,2012-10-12 23:49:00
5:00 PM,52,50,92,29.89,,WSW,3.5,,,,,240,2012-10-13 00:00:00
5:00 PM,51.8,50.0,94,29.89,9.0,WSW,4.6,-,N/A,Rain,Light Rain,250,2012-10-13 00:00:00
5:03 PM,51.8,50.0,94,29.89,9.0,WSW,4.6,-,N/A,,Overcast,240,2012-10-13 00:03:00
5:10 PM,51.8,50.0,94,29.89,6.0,West,4.6,-,N/A,Rain,Light Rain,260,2012-10-13 00:10:00
5:41 PM,51.8,50.0,94,29.89,5.0,SW,3.5,-,N/A,Rain,Light Rain,230,2012-10-13 00:41:00
6:00 PM,51.8,50.0,94,29.89,4.0,WSW,2.3,-,N/A,Rain,Light Rain,250,2012-10-13 01:00:00
6:06 PM,51.8,50.0,94,29.89,6.0,Variable,2.3,-,N/A,Rain,Light Rain,0,2012-10-13 01:06:00
6:13 PM,51.8,50.0,94,29.89,6.0,Calm,Calm,-,N/A,Rain,Light Rain,0,2012-10-13 01:13:00
6:15 PM,51.8,50.0,94,29.89,4.0,Calm,Calm,-,N/A,Rain,Light Rain,0,2012-10-13 01:15:00
6:18 PM,51.8,50.0,94,29.90,2.5,Calm,Calm,-,N/A,Rain,Light Rain,0,2012-10-13 01:18:00
6:44 PM,51.8,50.0,94,29.90,1.5,WSW,3.5,-,N/A,Rain,Light Rain,240,2012-10-13 01:44:00
7:00 PM,51.8,50.0,94,29.90,2.0,Calm,Calm,-,N/A,Rain,Light Rain,0,2012-10-13 02:00:00
7:30 PM,51.8,50.0,94,29.91,1.5,Calm,Calm,-,N/A,Rain,Light Rain,0,2012-10-13 02:30:00
7:34 PM,51.8,50.0,94,29.91,1.5,Calm,Calm,-,N/A,Rain,Light Rain,0,2012-10-13 02:34:00
8:00 PM,51,50,96,29.91,,West,1.2,,,,,280,2012-10-13 03:00:00
8:00 PM,51.8,50.0,94,29.91,1.5,Variable,2.3,-,N/A,Rain,Light Rain,0,2012-10-13 03:00:00
8:18 PM,51.8,50.0,94,29.92,1.5,West,3.5,-,N/A,Rain,Light Rain,260,2012-10-13 03:18:00
9:00 PM,51.8,50.0,94,29.91,3.0,Variable,2.3,-,N/A,Rain,Light Rain,0,2012-10-13 04:00:00
9:23 PM,51.8,50.0,94,29.91,2.2,Calm,Calm,-,N/A,Rain,Light Rain,0,2012-10-13 04:23:00
9:31 PM,51.8,50.0,94,29.91,1.8,Calm,Calm,-,N/A,Rain,Light Rain,0,2012-10-13 04:31:00
9:40 PM,51.8,50.0,94,29.92,2.5,West,3.5,-,N/A,Rain,Light Rain,260,2012-10-13 04:40:00
9:59 PM,51.8,50.0,94,29.92,2.0,WSW,3.5,-,N/A,Rain,Light Rain,250,2012-10-13 04:59:00
10:00 PM,51.8,50.0,94,29.92,2.0,WSW,3.5,-,N/A,Rain,Rain,250,2012-10-13 05:00:00
11:00 PM,51,50,97,29.93,,SW,2.3,,,,,230,2012-10-13 06:00:00
11:00 PM,51.8,50.0,94,29.93,1.8,West,3.5,-,N/A,Rain,Light Rain,260,2012-10-13 06:00:00
11:30 PM,51.8,50.0,94,29.94,2.5,Calm,Calm,-,N/A,Rain,Light Rain,0,2012-10-13 06:30:00
11:48 PM,51.8,50.0,94,29.93,2.0,Calm,Calm,-,N/A,Rain,Light Rain,0,2012-10-13 06:48:00